Time,TemperatureF,DewpointF,PressureIn,WindDirection,WindDirectionDegrees,WindSpeedMPH,WindSpeedGustMPH,Humidity,HourlyPrecipIn,Conditions,Clouds,dailyrainin,SoftwareType,DateUTC
2013-05-23 00:02:00,50.0,-99.9,29.98,WNW,299,27.0,35.0,-999,-99.99,,,-99.99,,2013-05-23 07:02:00,
2013-05-23 00:11:00,49.0,-99.9,29.97,WNW,298,26.0,33.0,-999,-99.99,,,-99.99,,2013-05-23 07:11:00,
2013-05-23 00:22:00,49.0,-99.9,29.97,WNW,298,27.0,32.0,-999,-99.99,,,-99.99,,2013-05-23 07:22:00,
2013-05-23 00:32:00,49.0,-99.9,29.98,WNW,296,27.0,34.0,-999,-99.99,,,-99.99,,2013-05-23 07:32:00,
2013-05-23 00:42:00,49.0,-99.9,29.98,WNW,298,26.0,33.0,-999,-99.99,,,-99.99,,2013-05-23 07:42:00,
2013-05-23 00:59:00,49.0,-99.9,29.98,WNW,297,26.0,33.0,-999,-99.99,,,-99.99,,2013-05-23 07:59:00,
2013-05-23 01:12:00,49.0,-99.9,29.98,WNW,301,24.0,31.0,-999,-99.99,,,-99.99,,2013-05-23 08:12:00,
2013-05-23 01:22:00,49.0,-99.9,29.98,WNW,301,26.0,32.0,-999,-99.99,,,-99.99,,2013-05-23 08:22:00,
2013-05-23 01:32:00,49.0,-99.9,29.98,WNW,297,28.0,34.0,-999,-99.99,,,-99.99,,2013-05-23 08:32:00,
2013-05-23 01:42:00,49.0,-99.9,29.97,WNW,300,25.0,33.0,-999,-99.99,,,-99.99,,2013-05-23 08:42:00,
2013-05-23 01:52:00,49.0,-99.9,29.97,WNW,297,23.0,31.0,-999,-99.99,,,-99.99,,2013-05-23 08:52:00,
2013-05-23 02:02:00,49.0,-99.9,29.97,WNW,297,25.0,30.0,-999,-99.99,,,-99.99,,2013-05-23 09:02:00,
2013-05-23 02:11:00,49.0,-99.9,29.97,WNW,300,22.0,29.0,-999,-99.99,,,-99.99,,2013-05-23 09:11:00,
2013-05-23 02:22:00,49.0,-99.9,29.97,NW,308,25.0,32.0,-999,-99.99,,,-99.99,,2013-05-23 09:22:00,
2013-05-23 02:33:00,49.0,-99.9,29.97,NW,307,22.0,29.0,-999,-99.99,,,-99.99,,2013-05-23 09:33:00,
2013-05-23 02:42:00,49.0,-99.9,29.97,WNW,301,24.0,32.0,-999,-99.99,,,-99.99,,2013-05-23 09:42:00,
2013-05-23 02:53:00,49.0,-99.9,29.97,WNW,302,24.0,30.0,-999,-99.99,,,-99.99,,2013-05-23 09:53:00,
2013-05-23 03:03:00,49.0,-99.9,29.96,WNW,296,25.0,29.0,-999,-99.99,,,-99.99,,2013-05-23 10:03:00,
2013-05-23 03:13:00,49.0,-99.9,29.96,WNW,296,26.0,30.0,-999,-99.99,,,-99.99,,2013-05-23 10:13:00,
2013-05-23 03:22:00,49.0,-99.9,29.97,WNW,298,24.0,32.0,-999,-99.99,,,-99.99,,2013-05-23 10:22:00,
2013-05-23 03:32:00,49.0,-99.9,29.97,WNW,297,23.0,31.0,-999,-99.99,,,-99.99,,2013-05-23 10:32:00,
2013-05-23 03:42:00,49.0,-99.9,29.96,WNW,299,26.0,38.0,-999,-99.99,,,-99.99,,2013-05-23 10:42:00,
2013-05-23 03:52:00,49.0,-99.9,29.97,WNW,298,25.0,34.0,-999,-99.99,,,-99.99,,2013-05-23 10:52:00,
2013-05-23 04:02:00,49.0,-99.9,29.97,WNW,300,25.0,34.0,-999,-99.99,,,-99.99,,2013-05-23 11:02:00,
2013-05-23 04:12:00,49.0,-99.9,29.97,WNW,301,28.0,33.0,-999,-99.99,,,-99.99,,2013-05-23 11:12:00,
2013-05-23 04:22:00,49.0,-99.9,29.97,WNW,301,28.0,33.0,-999,-99.99,,,-99.99,,2013-05-23 11:22:00,
2013-05-23 04:32:00,49.0,-99.9,29.97,WNW,300,29.0,34.0,-999,-99.99,,,-99.99,,2013-05-23 11:32:00,
2013-05-23 04:42:00,49.0,-99.9,29.96,WNW,297,28.0,33.0,-999,-99.99,,,-99.99,,2013-05-23 11:42:00,
2013-05-23 04:52:00,49.0,-99.9,29.96,WNW,299,28.0,34.0,-999,-99.99,,,-99.99,,2013-05-23 11:52:00,
2013-05-23 05:02:00,49.0,-99.9,29.96,WNW,298,26.0,35.0,-999,-99.99,,,-99.99,,2013-05-23 12:02:00,
2013-05-23 05:12:00,49.0,-99.9,29.96,WNW,296,25.0,33.0,-999,-99.99,,,-99.99,,2013-05-23 12:12:00,
2013-05-23 05:22:00,49.0,-99.9,29.96,WNW,301,26.0,32.0,-999,-99.99,,,-99.99,,2013-05-23 12:22:00,
2013-05-23 05:33:00,49.0,-99.9,29.96,WNW,298,25.0,33.0,-999,-99.99,,,-99.99,,2013-05-23 12:33:00,
2013-05-23 05:42:00,49.0,-99.9,29.96,WNW,296,25.0,31.0,-999,-99.99,,,-99.99,,2013-05-23 12:42:00,
2013-05-23 05:52:00,49.0,-99.9,29.96,WNW,298,27.0,33.0,-999,-99.99,,,-99.99,,2013-05-23 12:52:00,
2013-05-23 06:02:00,49.0,-99.9,29.97,WNW,298,27.0,34.0,-999,-99.99,,,-99.99,,2013-05-23 13:02:00,
2013-05-23 06:11:00,49.0,-99.9,29.97,WNW,301,26.0,34.0,-999,-99.99,,,-99.99,,2013-05-23 13:11:00,
2013-05-23 06:22:00,49.0,-99.9,29.97,WNW,296,25.0,32.0,-999,-99.99,,,-99.99,,2013-05-23 13:22:00,
2013-05-23 06:32:00,49.0,-99.9,29.97,WNW,299,24.0,30.0,-999,-99.99,,,-99.99,,2013-05-23 13:32:00,
2013-05-23 06:42:00,49.0,-99.9,29.98,WNW,297,26.0,30.0,-999,-99.99,,,-99.99,,2013-05-23 13:42:00,
2013-05-23 06:52:00,49.0,-99.9,29.98,WNW,298,25.0,35.0,-999,-99.99,,,-99.99,,2013-05-23 13:52:00,
2013-05-23 07:02:00,49.0,-99.9,29.98,WNW,303,23.0,30.0,-999,-99.99,,,-99.99,,2013-05-23 14:02:00,
2013-05-23 07:11:00,49.0,-99.9,29.98,NW,306,25.0,31.0,-999,-99.99,,,-99.99,,2013-05-23 14:11:00,
2013-05-23 07:22:00,49.0,-99.9,29.98,NW,306,26.0,31.0,-999,-99.99,,,-99.99,,2013-05-23 14:22:00,
2013-05-23 07:32:00,49.0,-99.9,29.98,NW,305,22.0,30.0,-999,-99.99,,,-99.99,,2013-05-23 14:32:00,
2013-05-23 07:42:00,49.0,-99.9,29.98,NW,304,23.0,28.0,-999,-99.99,,,-99.99,,2013-05-23 14:42:00,
2013-05-23 07:52:00,49.0,-99.9,29.98,NW,307,26.0,30.0,-999,-99.99,,,-99.99,,2013-05-23 14:52:00,
2013-05-23 08:01:00,49.0,-99.9,29.98,NW,308,25.0,30.0,-999,-99.99,,,-99.99,,2013-05-23 15:01:00,
2013-05-23 08:11:00,49.0,-99.9,29.98,NW,307,24.0,28.0,-999,-99.99,,,-99.99,,2013-05-23 15:11:00,
2013-05-23 08:22:00,49.0,-99.9,29.98,NW,309,26.0,30.0,-999,-99.99,,,-99.99,,2013-05-23 15:22:00,
2013-05-23 08:33:00,49.0,-99.9,29.98,WNW,299,23.0,29.0,-999,-99.99,,,-99.99,,2013-05-23 15:33:00,
2013-05-23 08:43:00,49.0,-99.9,29.99,WNW,297,26.0,33.0,-999,-99.99,,,-99.99,,2013-05-23 15:43:00,
2013-05-23 08:53:00,50.0,-99.9,29.99,WNW,298,29.0,33.0,-999,-99.99,,,-99.99,,2013-05-23 15:53:00,
2013-05-23 09:03:00,50.0,-99.9,29.99,WNW,294,24.0,34.0,-999,-99.99,,,-99.99,,2013-05-23 16:03:00,
2013-05-23 09:13:00,50.0,-99.9,30.00,WNW,298,25.0,31.0,-999,-99.99,,,-99.99,,2013-05-23 16:13:00,
2013-05-23 09:23:00,50.0,-99.9,30.00,WNW,297,29.0,32.0,-999,-99.99,,,-99.99,,2013-05-23 16:23:00,
2013-05-23 09:34:00,50.0,-99.9,30.00,WNW,297,26.0,32.0,-999,-99.99,,,-99.99,,2013-05-23 16:34:00,
2013-05-23 09:43:00,50.0,-99.9,30.00,WNW,301,27.0,31.0,-999,-99.99,,,-99.99,,2013-05-23 16:43:00,
2013-05-23 09:53:00,50.0,-99.9,30.00,WNW,297,25.0,33.0,-999,-99.99,,,-99.99,,2013-05-23 16:53:00,
2013-05-23 10:03:00,50.0,-99.9,30.00,WNW,303,23.0,30.0,-999,-99.99,,,-99.99,,2013-05-23 17:03:00,
2013-05-23 10:12:00,50.0,-99.9,30.01,NW,306,20.0,30.0,-999,-99.99,,,-99.99,,2013-05-23 17:12:00,
2013-05-23 10:23:00,50.0,-99.9,30.01,NW,309,21.0,26.0,-999,-99.99,,,-99.99,,2013-05-23 17:23:00,
2013-05-23 10:34:00,51.0,-99.9,30.01,NW,306,21.0,25.0,-999,-99.99,,,-99.99,,2013-05-23 17:34:00,
2013-05-23 10:43:00,50.0,-99.9,30.01,NW,312,24.0,29.0,-999,-99.99,,,-99.99,,2013-05-23 17:43:00,
2013-05-23 10:53:00,50.0,-99.9,30.01,NW,309,23.0,27.0,-999,-99.99,,,-99.99,,2013-05-23 17:53:00,
2013-05-23 11:02:00,50.0,-99.9,30.01,NW,309,26.0,31.0,-999,-99.99,,,-99.99,,2013-05-23 18:02:00,
2013-05-23 11:11:00,51.0,-99.9,30.01,NW,311,26.0,31.0,-999,-99.99,,,-99.99,,2013-05-23 18:11:00,
2013-05-23 11:22:00,51.0,-99.9,30.01,NW,311,23.0,29.0,-999,-99.99,,,-99.99,,2013-05-23 18:22:00,
2013-05-23 11:32:00,51.0,-99.9,30.02,NW,311,23.0,28.0,-999,-99.99,,,-99.99,,2013-05-23 18:32:00,
2013-05-23 11:42:00,51.0,-99.9,30.03,WNW,302,24.0,29.0,-999,-99.99,,,-99.99,,2013-05-23 18:42:00,
2013-05-23 11:52:00,51.0,-99.9,30.03,NW,306,23.0,28.0,-999,-99.99,,,-99.99,,2013-05-23 18:52:00,
2013-05-23 12:02:00,51.0,-99.9,30.03,NW,305,21.0,28.0,-999,-99.99,,,-99.99,,2013-05-23 19:02:00,
2013-05-23 12:11:00,51.0,-99.9,30.04,NW,307,23.0,32.0,-999,-99.99,,,-99.99,,2013-05-23 19:11:00,
2013-05-23 12:22:00,51.0,-99.9,30.04,WNW,297,23.0,30.0,-999,-99.99,,,-99.99,,2013-05-23 19:22:00,
2013-05-23 12:32:00,51.0,-99.9,30.04,NW,307,24.0,29.0,-999,-99.99,,,-99.99,,2013-05-23 19:32:00,
2013-05-23 12:42:00,51.0,-99.9,30.04,WNW,301,21.0,27.0,-999,-99.99,,,-99.99,,2013-05-23 19:42:00,
2013-05-23 12:52:00,51.0,-99.9,30.04,WNW,301,22.0,26.0,-999,-99.99,,,-99.99,,2013-05-23 19:52:00,
2013-05-23 13:02:00,51.0,-99.9,30.04,WNW,300,21.0,27.0,-999,-99.99,,,-99.99,,2013-05-23 20:02:00,
2013-05-23 13:12:00,52.0,-99.9,30.04,NW,311,19.0,26.0,-999,-99.99,,,-99.99,,2013-05-23 20:12:00,
2013-05-23 13:22:00,52.0,-99.9,30.04,NW,311,19.0,26.0,-999,-99.99,,,-99.99,,2013-05-23 20:22:00,
2013-05-23 13:32:00,52.0,-99.9,30.04,WNW,302,21.0,29.0,-999,-99.99,,,-99.99,,2013-05-23 20:32:00,
2013-05-23 13:42:00,51.0,-99.9,30.05,WNW,302,23.0,28.0,-999,-99.99,,,-99.99,,2013-05-23 20:42:00,
2013-05-23 13:52:00,52.0,-99.9,30.05,WNW,303,21.0,30.0,-999,-99.99,,,-99.99,,2013-05-23 20:52:00,
2013-05-23 14:01:00,52.0,-99.9,30.05,WNW,297,20.0,28.0,-999,-99.99,,,-99.99,,2013-05-23 21:01:00,
2013-05-23 14:11:00,52.0,-99.9,30.05,WNW,300,23.0,30.0,-999,-99.99,,,-99.99,,2013-05-23 21:11:00,
2013-05-23 14:22:00,52.0,-99.9,30.05,WNW,300,24.0,31.0,-999,-99.99,,,-99.99,,2013-05-23 21:22:00,
2013-05-23 14:33:00,52.0,-99.9,30.05,WNW,295,23.0,30.0,-999,-99.99,,,-99.99,,2013-05-23 21:33:00,
2013-05-23 14:43:00,52.0,-99.9,30.05,WNW,301,22.0,29.0,-999,-99.99,,,-99.99,,2013-05-23 21:43:00,
2013-05-23 14:53:00,52.0,-99.9,30.06,WNW,303,21.0,27.0,-999,-99.99,,,-99.99,,2013-05-23 21:53:00,
2013-05-23 15:03:00,52.0,-99.9,30.06,WNW,295,23.0,30.0,-999,-99.99,,,-99.99,,2013-05-23 22:03:00,
2013-05-23 15:12:00,52.0,-99.9,30.05,NW,308,23.0,28.0,-999,-99.99,,,-99.99,,2013-05-23 22:12:00,
2013-05-23 15:23:00,52.0,-99.9,30.05,NW,306,23.0,29.0,-999,-99.99,,,-99.99,,2013-05-23 22:23:00,
2013-05-23 15:33:00,52.0,-99.9,30.05,WNW,296,23.0,28.0,-999,-99.99,,,-99.99,,2013-05-23 22:33:00,
2013-05-23 15:42:00,52.0,-99.9,30.05,NW,307,24.0,32.0,-999,-99.99,,,-99.99,,2013-05-23 22:42:00,
2013-05-23 15:52:00,52.0,-99.9,30.05,WNW,300,23.0,28.0,-999,-99.99,,,-99.99,,2013-05-23 22:52:00,
2013-05-23 16:02:00,53.0,-99.9,30.04,WNW,303,23.0,30.0,-999,-99.99,,,-99.99,,2013-05-23 23:02:00,
2013-05-23 16:12:00,52.0,-99.9,30.04,WNW,296,24.0,31.0,-999,-99.99,,,-99.99,,2013-05-23 23:12:00,
2013-05-23 16:22:00,52.0,-99.9,30.04,WNW,298,26.0,30.0,-999,-99.99,,,-99.99,,2013-05-23 23:22:00,
2013-05-23 16:32:00,52.0,-99.9,30.04,WNW,296,24.0,30.0,-999,-99.99,,,-99.99,,2013-05-23 23:32:00,
2013-05-23 16:42:00,52.0,-99.9,30.04,WNW,283,21.0,29.0,-999,-99.99,,,-99.99,,2013-05-23 23:42:00,
2013-05-23 16:52:00,52.0,-99.9,30.05,WNW,290,23.0,34.0,-999,-99.99,,,-99.99,,2013-05-23 23:52:00,
2013-05-23 17:01:00,52.0,-99.9,30.05,WNW,288,23.0,29.0,-999,-99.99,,,-99.99,,2013-05-24 00:01:00,
2013-05-23 17:12:00,52.0,-99.9,30.05,WNW,289,23.0,31.0,-999,-99.99,,,-99.99,,2013-05-24 00:12:00,
2013-05-23 17:22:00,52.0,-99.9,30.04,WNW,291,28.0,32.0,-999,-99.99,,,-99.99,,2013-05-24 00:22:00,
2013-05-23 17:32:00,52.0,-99.9,30.05,WNW,287,29.0,35.0,-999,-99.99,,,-99.99,,2013-05-24 00:32:00,
2013-05-23 17:42:00,52.0,-99.9,30.04,WNW,290,25.0,33.0,-999,-99.99,,,-99.99,,2013-05-24 00:42:00,
2013-05-23 17:52:00,52.0,-99.9,30.04,WNW,292,29.0,35.0,-999,-99.99,,,-99.99,,2013-05-24 00:52:00,
2013-05-23 18:01:00,52.0,-99.9,30.04,WNW,291,25.0,33.0,-999,-99.99,,,-99.99,,2013-05-24 01:01:00,
2013-05-23 18:12:00,52.0,-99.9,30.03,WNW,292,25.0,31.0,-999,-99.99,,,-99.99,,2013-05-24 01:12:00,
2013-05-23 18:22:00,52.0,-99.9,30.04,WNW,287,27.0,33.0,-999,-99.99,,,-99.99,,2013-05-24 01:22:00,
2013-05-23 18:32:00,52.0,-99.9,30.03,WNW,286,25.0,35.0,-999,-99.99,,,-99.99,,2013-05-24 01:32:00,
2013-05-23 18:42:00,52.0,-99.9,30.03,WNW,289,27.0,33.0,-999,-99.99,,,-99.99,,2013-05-24 01:42:00,
2013-05-23 18:52:00,52.0,-99.9,30.03,WNW,288,27.0,35.0,-999,-99.99,,,-99.99,,2013-05-24 01:52:00,
2013-05-23 19:02:00,52.0,-99.9,30.03,WNW,290,26.0,35.0,-999,-99.99,,,-99.99,,2013-05-24 02:02:00,
2013-05-23 19:12:00,52.0,-99.9,30.03,WNW,293,25.0,32.0,-999,-99.99,,,-99.99,,2013-05-24 02:12:00,
2013-05-23 19:22:00,52.0,-99.9,30.03,WNW,290,26.0,33.0,-999,-99.99,,,-99.99,,2013-05-24 02:22:00,
2013-05-23 19:32:00,52.0,-99.9,30.03,WNW,292,25.0,32.0,-999,-99.99,,,-99.99,,2013-05-24 02:32:00,
2013-05-23 19:42:00,51.0,-99.9,30.03,WNW,295,25.0,33.0,-999,-99.99,,,-99.99,,2013-05-24 02:42:00,
2013-05-23 19:52:00,51.0,-99.9,30.02,WNW,293,24.0,34.0,-999,-99.99,,,-99.99,,2013-05-24 02:52:00,
2013-05-23 20:02:00,51.0,-99.9,30.02,WNW,290,25.0,34.0,-999,-99.99,,,-99.99,,2013-05-24 03:02:00,
2013-05-23 20:11:00,51.0,-99.9,30.02,WNW,293,23.0,31.0,-999,-99.99,,,-99.99,,2013-05-24 03:11:00,
2013-05-23 20:22:00,51.0,-99.9,30.02,WNW,295,27.0,32.0,-999,-99.99,,,-99.99,,2013-05-24 03:22:00,
2013-05-23 20:33:00,51.0,-99.9,30.02,WNW,293,23.0,30.0,-999,-99.99,,,-99.99,,2013-05-24 03:33:00,
2013-05-23 20:43:00,51.0,-99.9,30.02,WNW,295,23.0,30.0,-999,-99.99,,,-99.99,,2013-05-24 03:43:00,
2013-05-23 20:53:00,51.0,-99.9,30.02,WNW,292,23.0,28.0,-999,-99.99,,,-99.99,,2013-05-24 03:53:00,
2013-05-23 21:03:00,51.0,-99.9,30.03,WNW,291,23.0,31.0,-999,-99.99,,,-99.99,,2013-05-24 04:03:00,
2013-05-23 21:13:00,51.0,-99.9,30.03,WNW,291,25.0,34.0,-999,-99.99,,,-99.99,,2013-05-24 04:13:00,
2013-05-23 21:23:00,51.0,-99.9,30.03,WNW,292,27.0,32.0,-999,-99.99,,,-99.99,,2013-05-24 04:23:00,
2013-05-23 21:33:00,51.0,-99.9,30.03,WNW,291,28.0,34.0,-999,-99.99,,,-99.99,,2013-05-24 04:33:00,
2013-05-23 21:42:00,51.0,-99.9,30.03,WNW,293,24.0,31.0,-999,-99.99,,,-99.99,,2013-05-24 04:42:00,
2013-05-23 21:53:00,50.0,-99.9,30.03,WNW,291,25.0,34.0,-999,-99.99,,,-99.99,,2013-05-24 04:53:00,
2013-05-23 22:02:00,50.0,-99.9,30.03,WNW,297,27.0,33.0,-999,-99.99,,,-99.99,,2013-05-24 05:02:00,
2013-05-23 22:12:00,50.0,-99.9,30.04,WNW,295,25.0,31.0,-999,-99.99,,,-99.99,,2013-05-24 05:12:00,
2013-05-23 22:22:00,50.0,-99.9,30.04,WNW,296,26.0,32.0,-999,-99.99,,,-99.99,,2013-05-24 05:22:00,
2013-05-23 22:32:00,50.0,-99.9,30.04,WNW,296,26.0,33.0,-999,-99.99,,,-99.99,,2013-05-24 05:32:00,
2013-05-23 22:42:00,50.0,-99.9,30.04,WNW,299,26.0,31.0,-999,-99.99,,,-99.99,,2013-05-24 05:42:00,
2013-05-23 22:52:00,50.0,-99.9,30.04,WNW,296,26.0,35.0,-999,-99.99,,,-99.99,,2013-05-24 05:52:00,
2013-05-23 23:02:00,50.0,-99.9,30.04,WNW,295,26.0,34.0,-999,-99.99,,,-99.99,,2013-05-24 06:02:00,
2013-05-23 23:12:00,50.0,-99.9,30.04,WNW,299,28.0,32.0,-999,-99.99,,,-99.99,,2013-05-24 06:12:00,
2013-05-23 23:22:00,50.0,-99.9,30.04,WNW,297,27.0,32.0,-999,-99.99,,,-99.99,,2013-05-24 06:22:00,
2013-05-23 23:32:00,50.0,-99.9,30.03,WNW,297,27.0,34.0,-999,-99.99,,,-99.99,,2013-05-24 06:32:00,
2013-05-23 23:42:00,50.0,-99.9,30.03,WNW,296,26.0,33.0,-999,-99.99,,,-99.99,,2013-05-24 06:42:00,
2013-05-23 23:52:00,50.0,-99.9,30.03,WNW,296,26.0,33.0,-999,-99.99,,,-99.99,,2013-05-24 06:52:00,